CW5212 Weather Reports


Display with metric or nautical units.
time (UTC)temp
F
wind
direction
speed
MPH
gust
MPH
rain 1hr
in
rain 24hr
in
rain mn
in
humidity
%
barometer
mb
20260510123037 50 208 0.0 0.0 0.00 0.00 0.00 27 952.8
20260510121532 51 208 0.0 0.0 0.00 0.00 0.00 27 952.8
20260510120040 51 208 0.0 0.0 0.00 0.00 0.00 27 952.9
20260510114544 51 208 0.0 0.0 0.00 0.00 0.00 28 952.8
20260510113048 50 208 0.0 0.0 0.00 0.00 0.00 27 952.9
20260510111558 52 208 0.0 2.0 0.00 0.00 0.00 27 952.9
20260510110005 51 355 0.0 0.0 0.00 0.00 0.00 26 952.9
20260510104513 51 355 0.0 0.0 0.00 0.00 0.00 26 952.9
20260510103016 51 355 0.0 0.0 0.00 0.00 0.00 28 952.9
20260510101523 51 355 0.0 0.0 0.00 0.00 0.00 27 952.9
20260510100059 51 355 0.0 0.0 0.00 0.00 0.00 28 952.9
20260510100002 51 355 0.0 0.0 0.00 0.00 0.00 28 952.9
20260510094541 51 355 0.0 0.0 0.00 0.00 0.00 27 952.9
20260510093019 50 355 0.0 0.0 0.00 0.00 0.00 28 952.7
20260510091556 50 245 0.0 1.0 0.00 0.00 0.00 30 952.7
20260510090033 52 245 0.0 1.0 0.00 0.00 0.00 26 952.6
20260510084509 51 108 0.0 1.0 0.00 0.00 0.00 27 952.6
20260510083051 51 74 0.0 0.0 0.00 0.00 0.00 27 952.8
20260510081536 52 92 0.0 3.0 0.00 0.00 0.00 26 952.7
20260510080003 52 70 1.0 3.0 0.00 0.00 0.00 25 952.7
20260510074537 52 155 0.0 2.0 0.00 0.00 0.00 25 952.8
20260510073017 52 154 0.0 2.0 0.00 0.00 0.00 26 952.6
20260510071558 52 143 2.0 4.0 0.00 0.00 0.00 26 952.6
20260510070036 52 111 2.0 4.0 0.00 0.00 0.00 27 952.5
20260510064510 53 134 0.0 4.0 0.00 0.00 0.00 26 952.5
20260510063046 53 128 2.0 4.0 0.00 0.00 0.00 26 952.4
20260510061531 53 78 0.0 0.0 0.00 0.00 0.00 26 952.3
20260510060058 52 78 1.0 4.0 0.00 0.00 0.00 27 952.0
20260510054537 54 97 1.0 4.0 0.00 0.00 0.00 24 952.0
20260510053013 54 211 1.0 5.0 0.00 0.00 0.00 24 952.0
20260510051601 54 217 3.0 5.0 0.00 0.00 0.00 24 952.0
20260510050026 53 227 3.0 4.0 0.00 0.00 0.00 25 951.9
20260510044512 54 247 0.0 4.0 0.00 0.00 0.00 26 951.8
20260510043050 54 248 3.0 7.0 0.00 0.00 0.00 26 951.8
20260510041519 53 242 2.0 7.0 0.00 0.00 0.00 27 951.5
20260510040100 54 238 3.0 6.0 0.00 0.00 0.00 27 951.3
20260510034536 54 238 1.0 6.0 0.00 0.00 0.00 28 951.0
20260510033047 55 202 3.0 7.0 0.00 0.00 0.00 27 950.9
20260510031531 55 234 3.0 6.0 0.00 0.00 0.00 27 950.8
20260510030045 55 194 3.0 6.0 0.00 0.00 0.00 27 950.6
20260510024544 56 204 3.0 5.0 0.00 0.00 0.00 26 950.6
20260510023043 57 192 3.0 6.0 0.00 0.00 0.00 26 950.4
20260510021534 58 220 5.0 10.0 0.00 0.00 0.00 25 950.3
20260510020013 59 225 4.0 11.0 0.00 0.00 0.00 24 950.2
20260510014545 60 240 6.0 13.0 0.00 0.00 0.00 23 950.2
20260510013021 61 284 7.0 10.0 0.00 0.00 0.00 22 950.1
20260510011600 62 257 8.0 12.0 0.00 0.00 0.00 20 950.1
20260510011502 62 227 8.0 12.0 0.00 0.00 0.00 20 950.1
20260510010041 62 226 9.0 14.0 0.00 0.00 0.00 21 950.1
20260510004519 62 247 9.0 15.0 0.00 0.00 0.00 21 949.9
20260510003103 62 279 5.0 11.0 0.00 0.00 0.00 21 950.0
20260510001533 63 261 9.0 15.0 0.00 0.00 0.00 22 950.0
20260510000018 63 265 10.0 14.0 0.00 0.00 0.00 22 950.1
20260509234555 62 218 9.0 15.0 0.00 0.00 0.00 23 949.8
20260509233027 63 261 9.0 13.0 0.00 0.00 0.00 22 949.7
20260509231504 62 268 6.0 14.0 0.00 0.00 0.00 23 950.0
20260509230041 62 221 7.0 13.0 0.00 0.00 0.00 22 950.0
20260509224521 62 295 12.0 19.0 0.00 0.00 0.00 24 949.8
20260509223100 61 229 8.0 18.0 0.00 0.00 0.00 24 950.1
20260509221537 60 294 6.0 18.0 0.00 0.00 0.00 27 950.3
20260509220011 61 286 9.0 14.0 0.00 0.00 0.00 24 950.3
20260509214550 60 289 9.0 16.0 0.00 0.00 0.00 23 950.5
20260509213031 60 211 8.0 19.0 0.00 0.00 0.00 25 950.5
20260509211505 60 283 9.0 14.0 0.00 0.00 0.00 28 950.5
20260509210039 60 227 6.0 15.0 0.00 0.00 0.00 27 950.6
20260509204519 60 246 6.0 13.0 0.00 0.00 0.00 27 950.7
20260509203111 60 265 7.0 13.0 0.00 0.00 0.00 25 950.8
20260509201532 58 229 8.0 15.0 0.00 0.00 0.00 29 950.7
20260509200013 58 282 8.0 14.0 0.00 0.00 0.00 27 950.8
20260509194547 57 263 5.0 18.0 0.00 0.00 0.00 31 950.8
20260509193035 57 281 8.0 15.0 0.00 0.00 0.00 31 950.9
20260509191510 57 296 6.0 15.0 0.00 0.00 0.00 27 950.9
20260509190057 57 286 5.0 15.0 0.00 0.00 0.00 33 950.9
20260509184550 56 273 7.0 15.0 0.00 0.00 0.00 36 950.9
20260509183033 55 288 1.0 16.0 0.00 0.00 0.00 36 950.8
20260509181525 56 259 6.0 13.0 0.00 0.00 0.00 37 950.5
20260509180015 55 271 9.0 15.0 0.00 0.00 0.00 36 950.3
20260509174513 54 246 4.0 11.0 0.00 0.00 0.00 34 950.4
20260509173013 54 175 4.0 12.0 0.00 0.00 0.00 41 950.4
20260509171521 54 255 7.0 12.0 0.00 0.00 0.00 39 950.4
20260509170009 53 273 6.0 11.0 0.00 0.00 0.00 40 950.4
20260509164505 52 269 6.0 13.0 0.00 0.00 0.00 44 950.4
20260509163009 52 288 6.0 12.0 0.00 0.00 0.00 43 950.4
20260509161512 51 288 5.0 10.0 0.00 0.00 0.00 44 950.3
20260509160017 51 226 3.0 11.0 0.00 0.00 0.00 43 950.2
20260509154520 50 297 6.0 10.0 0.00 0.00 0.00 45 950.2
20260509153021 50 296 4.0 9.0 0.00 0.00 0.00 45 950.1
20260509151514 49 257 6.0 10.0 0.00 0.00 0.00 41 950.1
20260509144540 49 305 1.0 6.0 0.00 0.00 0.00 41 949.8
20260509143006 48 242 2.0 8.0 0.00 0.00 0.00 41 949.9
20260509141544 47 240 4.0 9.0 0.00 0.00 0.00 43 949.8
20260509140021 46 238 6.0 9.0 0.00 0.00 0.00 42 949.6
20260509134555 46 237 6.0 9.0 0.00 0.00 0.00 40 949.4
20260509133035 46 250 5.0 8.0 0.00 0.00 0.00 39 949.3
20260509131518 45 233 3.0 5.0 0.00 0.00 0.00 38 949.2
20260509130055 44 281 1.0 4.0 0.00 0.00 0.00 38 949.1
20260509124535 45 274 5.0 9.0 0.00 0.00 0.00 37 948.9